Satellite-Ground Cal/Val Site Overpasses Predictions

Prediction of Satellite NPP Overpassing Cal/Val Site: Antarctic Dome C

Ground Cal/Val Site Location: Latitude: -75.10, Longitude: 123.35; Satellite-Ground Site NADIR distance within 100 km.

Table of predicted overpasses for the next 14.0 days since TLE Epoch: 8/10/2024
Interval Starting Time Ending Time Minimum Distance Time Minimum Distance (km)
1 08/12/2024 14:55:27 08/12/2024 14:55:56 08/12/2024 14:55:41 24.95
2 08/13/2024 14:36:44 08/13/2024 14:37:00 08/13/2024 14:36:52 82.31
3 08/14/2024 07:38:18 08/14/2024 07:38:45 08/14/2024 07:38:31 40.74
4 08/15/2024 07:19:31 08/15/2024 07:19:52 08/15/2024 07:19:41 69.01
5 08/17/2024 15:01:47 08/17/2024 15:02:10 08/17/2024 15:01:58 62.23
6 08/18/2024 14:42:56 08/18/2024 14:43:22 08/18/2024 14:43:09 47.16
7 08/19/2024 07:44:38 08/19/2024 07:44:57 08/19/2024 07:44:47 76.04
8 08/20/2024 07:25:45 08/20/2024 07:26:12 08/20/2024 07:25:59 31.71
